Location: Ferintosh
(52.7647°N, 112.9692°W)
Time: 15:02:37
(UTC+00:00)

Transit 2A - Pass Details

Date: 25 May 2024
Orbit: 593 x 959 km, 66.7° (Epoch: 14 June)

Event Time Altitude Azimuth Distance (km) Brightness Sun altitude
Rises 13:21:23 0° 320° (NW) 3,352 9.1 15.5°
Reaches altitude 10° 13:23:44 10° 321° (NW) 2,469 8.4 15.9°
Maximum altitude 13:29:32 83° 50° (NE) 911 6.8 16.7°
Drops below altitude 10° 13:35:46 10° 139° (SE) 2,651 9.3 17.7°
Sets 13:38:22 0° 140° (SE) 3,614 9.9 18.1°
